| time (UTC) | temp F | wind direction | speed MPH | gust MPH | rain 1hr in | rain 24hr in | rain mn in | humidity % | barometer mb |
| 20260902124717 | 32 | 247 | 0.0 | 0.0 | 0.00 | 0.00 | 0.00 | 87 | 1020.4 |
| 20260902123733 | 32 | 247 | 0.0 | 0.0 | 0.00 | 0.00 | 0.00 | 85 | 1020.3 |
| 20260902122816 | 33 | 247 | 0.0 | 0.0 | 0.00 | 0.00 | 0.00 | 85 | 1020.4 |
| 20260902121816 | 33 | 247 | 0.0 | 0.0 | 0.00 | 0.00 | 0.00 | 86 | 1020.3 |
| 20260902121716 | 33 | 247 | 0.0 | 0.0 | 0.00 | 0.00 | 0.00 | 85 | 1020.3 |
| 20260902120815 | 33 | 247 | 0.0 | 0.0 | 0.00 | 0.00 | 0.00 | 85 | 1020.3 |
| 20260902115915 | 33 | 247 | 0.0 | 0.0 | 0.00 | 0.00 | 0.00 | 86 | 1020.3 |
| 20260902113918 | 33 | 247 | 0.0 | 0.0 | 0.00 | 0.00 | 0.00 | 87 | 1020.2 |
| 20260902112917 | 33 | 247 | 0.0 | 0.0 | 0.00 | 0.00 | 0.00 | 87 | 1020.1 |
| 20260902111918 | 33 | 247 | 0.0 | 0.0 | 0.00 | 0.00 | 0.00 | 88 | 1020.2 |
| 20260902110915 | 33 | 247 | 0.0 | 0.0 | 0.00 | 0.00 | 0.00 | 87 | 1020.2 |
| 20260902105916 | 34 | 247 | 0.0 | 0.0 | 0.00 | 0.00 | 0.00 | 88 | 1020.2 |
| 20260902104917 | 34 | 247 | 0.0 | 0.0 | 0.00 | 0.00 | 0.00 | 89 | 1020.2 |
| 20260902102015 | 35 | 247 | 0.0 | 0.0 | 0.00 | 0.00 | 0.00 | 91 | 1020.3 |
| 20260902101017 | 35 | 247 | 0.0 | 0.0 | 0.00 | 0.00 | 0.00 | 90 | 1020.3 |
| 20260902100918 | 35 | 247 | 0.0 | 0.0 | 0.00 | 0.00 | 0.00 | 91 | 1020.3 |
| 20260902093114 | 36 | 247 | 0.0 | 0.0 | 0.00 | 0.00 | 0.00 | 88 | 1020.6 |
| 20260902092215 | 36 | 247 | 0.0 | 0.0 | 0.00 | 0.00 | 0.00 | 89 | 1020.6 |
| 20260902090217 | 37 | 247 | 0.0 | 0.0 | 0.00 | 0.00 | 0.00 | 88 | 1020.6 |
| 20260902085314 | 37 | 247 | 0.0 | 0.0 | 0.00 | 0.00 | 0.00 | 87 | 1020.7 |
| 20260902084315 | 37 | 247 | 0.0 | 0.0 | 0.00 | 0.00 | 0.00 | 86 | 1020.6 |
| 20260902083214 | 37 | 247 | 0.0 | 0.0 | 0.00 | 0.00 | 0.00 | 86 | 1020.8 |
| 20260902082217 | 38 | 247 | 0.0 | 0.0 | 0.00 | 0.00 | 0.00 | 85 | 1020.9 |
| 20260902081215 | 38 | 247 | 0.0 | 0.0 | 0.00 | 0.00 | 0.00 | 85 | 1021.0 |
| 20260902080315 | 38 | 247 | 0.0 | 0.0 | 0.00 | 0.00 | 0.00 | 85 | 1021.1 |
| 20260902080215 | 38 | 247 | 0.0 | 0.0 | 0.00 | 0.00 | 0.00 | 85 | 1021.0 |
| 20260902075215 | 38 | 247 | 0.0 | 0.0 | 0.00 | 0.00 | 0.00 | 85 | 1020.8 |
| 20260902075117 | 38 | 247 | 0.0 | 0.0 | 0.00 | 0.00 | 0.00 | 85 | 1020.8 |
| 20260902075015 | 38 | 247 | 0.0 | 0.0 | 0.00 | 0.00 | 0.00 | 84 | 1020.9 |
| 20260902074016 | 38 | 247 | 0.0 | 0.0 | 0.00 | 0.00 | 0.00 | 85 | 1020.8 |
| 20260902072118 | 39 | 247 | 0.0 | 0.0 | 0.00 | 0.00 | 0.00 | 84 | 1020.8 |
| 20260902071116 | 39 | 247 | 0.0 | 0.0 | 0.00 | 0.00 | 0.00 | 83 | 1020.6 |
| 20260902070115 | 39 | 247 | 0.0 | 0.0 | 0.00 | 0.00 | 0.00 | 83 | 1020.6 |
| 20260902065121 | 40 | 247 | 0.0 | 0.0 | 0.00 | 0.00 | 0.00 | 80 | 1020.6 |
| 20260902063140 | 40 | 247 | 0.0 | 0.0 | 0.00 | 0.00 | 0.00 | 79 | 1020.6 |
| 20260902062141 | 41 | 247 | 0.0 | 0.0 | 0.00 | 0.00 | 0.00 | 79 | 1020.6 |
| 20260902061239 | 41 | 247 | 0.0 | 0.0 | 0.00 | 0.00 | 0.00 | 78 | 1020.5 |
| 20260902060241 | 41 | 247 | 0.0 | 0.0 | 0.00 | 0.00 | 0.00 | 78 | 1020.6 |
| 20260902055242 | 41 | 247 | 0.0 | 0.0 | 0.00 | 0.00 | 0.00 | 77 | 1020.6 |
| 20260902054142 | 42 | 247 | 0.0 | 0.0 | 0.00 | 0.00 | 0.00 | 77 | 1020.6 |
| 20260902052140 | 42 | 247 | 0.0 | 0.0 | 0.00 | 0.00 | 0.00 | 74 | 1020.9 |
| 20260902051141 | 43 | 247 | 0.0 | 0.0 | 0.00 | 0.00 | 0.00 | 73 | 1021.0 |
| 20260902050140 | 43 | 247 | 0.0 | 0.0 | 0.00 | 0.00 | 0.00 | 72 | 1021.0 |
| 20260902045140 | 44 | 247 | 0.0 | 0.0 | 0.00 | 0.00 | 0.00 | 71 | 1020.8 |
| 20260902045041 | 44 | 247 | 0.0 | 0.0 | 0.00 | 0.00 | 0.00 | 72 | 1020.8 |
| 20260902044040 | 44 | 247 | 0.0 | 0.0 | 0.00 | 0.00 | 0.00 | 70 | 1020.8 |
| 20260902043941 | 44 | 247 | 0.0 | 0.0 | 0.00 | 0.00 | 0.00 | 70 | 1020.8 |
| 20260902043039 | 45 | 247 | 0.0 | 0.0 | 0.00 | 0.00 | 0.00 | 70 | 1020.7 |
| 20260902041141 | 46 | 247 | 0.0 | 0.0 | 0.00 | 0.00 | 0.00 | 66 | 1020.6 |
| 20260902040140 | 47 | 247 | 0.0 | 0.0 | 0.00 | 0.00 | 0.00 | 65 | 1020.6 |
| 20260902035142 | 48 | 247 | 0.0 | 0.0 | 0.00 | 0.00 | 0.00 | 65 | 1020.6 |
| 20260902035040 | 48 | 247 | 0.0 | 0.0 | 0.00 | 0.00 | 0.00 | 64 | 1020.4 |
| 20260902034041 | 48 | 247 | 0.0 | 0.0 | 0.00 | 0.00 | 0.00 | 64 | 1020.4 |
| 20260902033140 | 49 | 247 | 0.0 | 0.0 | 0.00 | 0.00 | 0.00 | 64 | 1020.2 |
| 20260902033042 | 49 | 247 | 0.0 | 0.0 | 0.00 | 0.00 | 0.00 | 63 | 1020.3 |
| 20260902032140 | 50 | 247 | 0.0 | 0.0 | 0.00 | 0.00 | 0.00 | 64 | 1020.1 |
| 20260902031239 | 50 | 247 | 0.0 | 0.0 | 0.00 | 0.00 | 0.00 | 63 | 1020.3 |
| 20260902030240 | 51 | 247 | 0.0 | 1.0 | 0.00 | 0.00 | 0.00 | 62 | 1020.0 |
| 20260902030142 | 51 | 247 | 0.0 | 0.0 | 0.00 | 0.00 | 0.00 | 62 | 1020.0 |
| 20260902024140 | 53 | 247 | 0.0 | 0.0 | 0.00 | 0.00 | 0.00 | 59 | 1020.1 |
| 20260902023141 | 54 | 247 | 0.0 | 0.0 | 0.00 | 0.00 | 0.00 | 57 | 1019.9 |
| 20260902022239 | 55 | 247 | 0.0 | 0.0 | 0.00 | 0.00 | 0.00 | 56 | 1019.9 |
| 20260902021241 | 55 | 247 | 0.0 | 0.0 | 0.00 | 0.00 | 0.00 | 55 | 1019.9 |
| 20260902020241 | 56 | 247 | 0.0 | 0.0 | 0.00 | 0.00 | 0.00 | 53 | 1019.9 |
| 20260902015340 | 57 | 247 | 0.0 | 0.0 | 0.00 | 0.00 | 0.00 | 53 | 1019.9 |
| 20260902014340 | 58 | 247 | 0.0 | 0.0 | 0.00 | 0.00 | 0.00 | 51 | 1019.9 |
| 20260902013342 | 60 | 247 | 0.0 | 0.0 | 0.00 | 0.00 | 0.00 | 48 | 1019.7 |
| 20260902012341 | 61 | 247 | 0.0 | 0.0 | 0.00 | 0.00 | 0.00 | 45 | 1019.8 |
| 20260902010440 | 67 | 247 | 1.0 | 2.0 | 0.00 | 0.00 | 0.00 | 37 | 1019.6 |
| 20260902010338 | 68 | 247 | 1.0 | 2.0 | 0.00 | 0.00 | 0.00 | 36 | 1019.6 |
| 20260902010242 | 68 | 247 | 0.0 | 1.0 | 0.00 | 0.00 | 0.00 | 36 | 1019.6 |
| 20260902005340 | 68 | 180 | 0.0 | 1.0 | 0.00 | 0.00 | 0.00 | 35 | 1019.5 |
| 20260902003341 | 68 | 269 | 0.0 | 0.0 | 0.00 | 0.00 | 0.00 | 37 | 1019.5 |
| 20260902002341 | 68 | 48 | 1.0 | 7.0 | 0.00 | 0.00 | 0.00 | 35 | 1019.5 |
| 20260902001341 | 70 | 205 | 3.0 | 7.0 | 0.00 | 0.00 | 0.00 | 34 | 1019.5 |
| 20260901235341 | 70 | 145 | 1.0 | 3.0 | 0.00 | 0.00 | 0.00 | 34 | 1019.4 |
| 20260901234340 | 71 | 239 | 3.0 | 7.0 | 0.00 | 0.00 | 0.00 | 30 | 1019.5 |
| 20260901232341 | 73 | 162 | 1.0 | 5.0 | 0.00 | 0.00 | 0.00 | 25 | 1019.4 |
| 20260901232242 | 73 | 210 | 1.0 | 4.0 | 0.00 | 0.00 | 0.00 | 25 | 1019.5 |
| 20260901231242 | 74 | 180 | 0.0 | 1.0 | 0.00 | 0.00 | 0.00 | 24 | 1019.6 |
| 20260901231138 | 74 | 180 | 0.0 | 1.0 | 0.00 | 0.00 | 0.00 | 24 | 1019.5 |
| 20260901230138 | 73 | 225 | 0.0 | 3.0 | 0.00 | 0.00 | 0.00 | 24 | 1019.6 |
| 20260901225140 | 72 | 225 | 0.0 | 2.0 | 0.00 | 0.00 | 0.00 | 22 | 1019.8 |
| 20260901224142 | 72 | 239 | 2.0 | 4.0 | 0.00 | 0.00 | 0.00 | 25 | 1019.7 |
| 20260901223141 | 72 | 261 | 1.0 | 3.0 | 0.00 | 0.00 | 0.00 | 24 | 1019.8 |
| 20260901221141 | 72 | 210 | 3.0 | 5.0 | 0.00 | 0.00 | 0.00 | 24 | 1020.0 |
| 20260901220240 | 72 | 116 | 3.0 | 4.0 | 0.00 | 0.00 | 0.00 | 24 | 1019.9 |
| 20260901215240 | 72 | 280 | 1.0 | 3.0 | 0.00 | 0.00 | 0.00 | 26 | 1019.9 |
| 20260901214340 | 72 | 180 | 0.0 | 1.0 | 0.00 | 0.00 | 0.00 | 25 | 1020.1 |
| 20260901213340 | 71 | 229 | 4.0 | 7.0 | 0.00 | 0.00 | 0.00 | 26 | 1020.1 |
| 20260901213241 | 71 | 89 | 3.0 | 6.0 | 0.00 | 0.00 | 0.00 | 25 | 1020.1 |
| 20260901213140 | 71 | 198 | 2.0 | 7.0 | 0.00 | 0.00 | 0.00 | 26 | 1020.3 |
| 20260901212238 | 71 | 133 | 2.0 | 5.0 | 0.00 | 0.00 | 0.00 | 27 | 1020.2 |
| 20260901211239 | 71 | 136 | 3.0 | 5.0 | 0.00 | 0.00 | 0.00 | 27 | 1020.1 |
| 20260901210241 | 71 | 235 | 4.0 | 9.0 | 0.00 | 0.00 | 0.00 | 28 | 1020.1 |
| 20260901205239 | 71 | 100 | 0.0 | 1.0 | 0.00 | 0.00 | 0.00 | 29 | 1020.2 |
| 20260901204242 | 70 | 165 | 0.0 | 3.0 | 0.00 | 0.00 | 0.00 | 30 | 1020.3 |
| 20260901203338 | 69 | 136 | 2.0 | 2.0 | 0.00 | 0.00 | 0.00 | 30 | 1020.4 |
| 20260901203240 | 69 | 258 | 2.0 | 2.0 | 0.00 | 0.00 | 0.00 | 29 | 1020.4 |
| 20260901202339 | 70 | 193 | 4.0 | 8.0 | 0.00 | 0.00 | 0.00 | 29 | 1020.7 |
| 20260901201241 | 71 | 169 | 2.0 | 4.0 | 0.00 | 0.00 | 0.00 | 29 | 1020.1 |
| 20260901200340 | 70 | 218 | 3.0 | 5.0 | 0.00 | 0.00 | 0.00 | 28 | 1020.4 |
| 20260901200240 | 70 | 185 | 2.0 | 4.0 | 0.00 | 0.00 | 0.00 | 27 | 1020.3 |
| 20260901195241 | 70 | 285 | 5.0 | 7.0 | 0.00 | 0.00 | 0.00 | 27 | 1020.2 |
| 20260901194240 | 69 | 135 | 0.0 | 2.0 | 0.00 | 0.00 | 0.00 | 27 | 1020.2 |
| 20260901193240 | 69 | 243 | 3.0 | 6.0 | 0.00 | 0.00 | 0.00 | 26 | 1020.3 |
| 20260901192339 | 70 | 236 | 2.0 | 4.0 | 0.00 | 0.00 | 0.00 | 26 | 1020.3 |
| 20260901192240 | 70 | 184 | 3.0 | 6.0 | 0.00 | 0.00 | 0.00 | 25 | 1020.2 |
| 20260901191340 | 70 | 266 | 3.0 | 4.0 | 0.00 | 0.00 | 0.00 | 26 | 1020.4 |
| 20260901190341 | 70 | 162 | 1.0 | 3.0 | 0.00 | 0.00 | 0.00 | 27 | 1020.2 |
| 20260901185439 | 69 | 90 | 2.0 | 4.0 | 0.00 | 0.00 | 0.00 | 27 | 1020.4 |
| 20260901185341 | 69 | 126 | 1.0 | 5.0 | 0.00 | 0.00 | 0.00 | 27 | 1020.6 |
| 20260901184439 | 69 | 194 | 1.0 | 3.0 | 0.00 | 0.00 | 0.00 | 26 | 1020.3 |
| 20260901184341 | 69 | 199 | 4.0 | 7.0 | 0.00 | 0.00 | 0.00 | 26 | 1020.4 |
| 20260901184239 | 69 | 233 | 6.0 | 9.0 | 0.00 | 0.00 | 0.00 | 25 | 1020.3 |
| 20260901183241 | 69 | 225 | 2.0 | 9.0 | 0.00 | 0.00 | 0.00 | 24 | 1020.4 |
| 20260901182242 | 69 | 118 | 2.0 | 6.0 | 0.00 | 0.00 | 0.00 | 23 | 1020.2 |
| 20260901181242 | 69 | 230 | 3.0 | 6.0 | 0.00 | 0.00 | 0.00 | 22 | 1020.2 |
| 20260901180241 | 70 | 225 | 3.0 | 5.0 | 0.00 | 0.00 | 0.00 | 23 | 1020.2 |
| 20260901175240 | 69 | 135 | 0.0 | 2.0 | 0.00 | 0.00 | 0.00 | 20 | 1020.0 |
| 20260901173340 | 70 | 22 | 3.0 | 4.0 | 0.00 | 0.00 | 0.00 | 33 | 1019.9 |
| 20260901173241 | 70 | 338 | 3.0 | 5.0 | 0.00 | 0.00 | 0.00 | 33 | 1019.9 |
| 20260901172241 | 70 | 333 | 1.0 | 3.0 | 0.00 | 0.00 | 0.00 | 24 | 1019.7 |
| 20260901171340 | 70 | 264 | 2.0 | 4.0 | 0.00 | 0.00 | 0.00 | 20 | 1019.7 |
| 20260901165440 | 69 | 109 | 1.0 | 2.0 | 0.00 | 0.00 | 0.00 | 21 | 1019.7 |
| 20260901162441 | 65 | 157 | 0.0 | 0.0 | 0.00 | 0.00 | 0.00 | 44 | 1019.6 |
| 20260901161441 | 63 | 225 | 0.0 | 0.0 | 0.00 | 0.00 | 0.00 | 54 | 1019.8 |
| 20260901160440 | 61 | 225 | 0.0 | 0.0 | 0.00 | 0.00 | 0.00 | 56 | 1019.9 |
| 20260901155459 | 59 | 225 | 0.0 | 0.0 | 0.00 | 0.00 | 0.00 | 59 | 1019.9 |
| 20260901154540 | 57 | 225 | 0.0 | 0.0 | 0.00 | 0.00 | 0.00 | 60 | 1019.7 |
| 20260901152541 | 52 | 225 | 0.0 | 0.0 | 0.00 | 0.00 | 0.00 | 70 | 1019.7 |
| 20260901151540 | 50 | 225 | 0.0 | 0.0 | 0.00 | 0.00 | 0.00 | 78 | 1019.8 |
| 20260901151438 | 50 | 225 | 0.0 | 0.0 | 0.00 | 0.00 | 0.00 | 78 | 1019.7 |
| 20260901150440 | 46 | 225 | 0.0 | 0.0 | 0.00 | 0.00 | 0.00 | 82 | 1019.7 |
| 20260901150341 | 46 | 225 | 0.0 | 0.0 | 0.00 | 0.00 | 0.00 | 82 | 1019.7 |
| 20260901144339 | 39 | 225 | 0.0 | 0.0 | 0.00 | 0.00 | 0.00 | 93 | 1019.5 |
| 20260901143340 | 38 | 225 | 0.0 | 0.0 | 0.00 | 0.00 | 0.00 | 94 | 1019.6 |
| 20260901143240 | 38 | 225 | 0.0 | 0.0 | 0.00 | 0.00 | 0.00 | 94 | 1019.6 |
| 20260901142241 | 38 | 225 | 0.0 | 0.0 | 0.00 | 0.00 | 0.00 | 93 | 1019.4 |
| 20260901141340 | 38 | 225 | 0.0 | 0.0 | 0.00 | 0.00 | 0.00 | 92 | 1019.3 |
| 20260901135440 | 38 | 225 | 0.0 | 0.0 | 0.00 | 0.00 | 0.00 | 92 | 1019.2 |
| 20260901134440 | 38 | 225 | 0.0 | 0.0 | 0.00 | 0.00 | 0.00 | 92 | 1019.1 |
| 20260901133537 | 39 | 225 | 0.0 | 0.0 | 0.00 | 0.00 | 0.00 | 92 | 1019.1 |
| 20260901132539 | 39 | 225 | 0.0 | 0.0 | 0.00 | 0.00 | 0.00 | 92 | 1019.1 |
| 20260901132440 | 39 | 225 | 0.0 | 0.0 | 0.00 | 0.00 | 0.00 | 92 | 1019.1 |
| 20260901131440 | 39 | 225 | 0.0 | 0.0 | 0.00 | 0.00 | 0.00 | 91 | 1019.2 |
| 20260901130439 | 39 | 225 | 0.0 | 0.0 | 0.00 | 0.00 | 0.00 | 92 | 1019.2 |